Location: Arbon
(43.0005°N, 0.7472°E)
Time: 09:53:15
(UTC+00:00)

SR - Pass Details

Date: 30 November 2020
Orbit: 575 x 880 km, 66.7° (Epoch: 21 January)

Event Time Altitude Azimuth Distance (km) Brightness Sun altitude
Rises 02:27:46 0° 331° (NNW) 3,187 - -50.2°
Reaches altitude 10° 02:30:07 10° 336° (NNW) 2,306 - -49.8°
Maximum altitude 02:35:23 59° 56° (NE) 931 - -48.9°
Drops below altitude 10° 02:41:01 10° 136° (SE) 2,467 - -47.9°
Sets 02:43:36 0° 140° (SE) 3,427 - -47.5°
